Date String (YYYY-MM-DD hh:mm:ss) UTC,Instrument flags,Ambient pressure (hPa),Sample flow (lpm),Bypass flow (lpm),Sample temperature (°C),Ambient temperature (°C),ASC tube jacket temperature (°C),LED temperature (°C),Box temperature (°C),Sample RH (%),Span deviation,Mass concentration (μg/m³),Mass concentration (μg/m³),Mass concentration (μg/m³)
DateTimeUTC,F1_M11,P_M11,Q1_M11,Q2_M11,T1_M11,T2_M11,T3_M11,T4_M11,T5_M11,U1_M11,ZSPAN_M11,X2_M11,X0_M11,X1_M11
2022-04-18 02:00:00,,0827.6,4.99,0.00,26.9,25.9,00.0,35.9,28.7,13.0,0000.0,0003.48,0010.28,0001.31
2022-04-18 02:01:00,,0827.7,5.00,0.00,26.9,25.9,00.0,35.9,28.7,13.0,0000.0,0003.43,0010.07,0001.30
2022-04-18 02:02:00,,0827.7,5.02,0.00,26.9,25.9,00.0,35.8,28.7,13.0,0000.0,0003.43,0010.04,0001.28
2022-04-18 02:03:00,,0827.7,5.00,0.00,26.9,25.9,00.0,35.8,28.7,12.9,0000.0,0003.37,0009.95,0001.25
2022-04-18 02:04:00,,0827.7,5.02,0.00,26.9,25.9,00.0,35.8,28.7,12.9,0000.0,0003.38,0010.25,0001.26
2022-04-18 02:05:00,,0827.9,5.00,0.00,26.9,25.9,00.0,35.8,28.7,12.9,0000.0,0003.41,0010.62,0001.27
2022-04-18 02:06:00,,0827.8,5.00,0.00,26.9,25.8,00.0,35.8,28.6,12.9,0000.0,0003.42,0012.15,0001.26
2022-04-18 02:07:00,,0827.8,4.99,0.00,26.9,25.8,00.0,35.8,28.5,13.0,0000.0,0003.47,0013.60,0001.27
2022-04-18 02:08:00,,0827.9,5.00,0.00,26.8,25.8,00.0,35.8,28.5,13.0,0000.0,0003.52,0013.43,0001.27
2022-04-18 02:09:00,,0827.9,5.02,0.00,26.8,25.9,00.0,35.8,28.5,13.0,0000.0,0003.51,0013.45,0001.27
2022-04-18 02:10:00,,0828.0,5.00,0.00,26.8,25.9,00.0,35.8,28.5,13.0,0000.0,0003.50,0013.35,0001.26
2022-04-18 02:11:00,,0827.9,4.99,0.00,26.8,25.9,00.0,35.8,28.6,13.0,0000.0,0003.52,0013.63,0001.27
2022-04-18 02:12:00,,0827.9,4.99,0.00,26.8,25.9,00.0,35.8,28.5,13.0,0000.0,0003.52,0013.69,0001.26
2022-04-18 02:13:00,,0828.0,5.02,0.00,26.8,25.8,00.0,35.8,28.5,13.0,0000.0,0003.48,0013.67,0001.28
2022-04-18 02:14:00,,0827.9,5.01,0.00,26.8,25.8,00.0,35.8,28.5,13.0,0000.0,0003.45,0013.59,0001.28
2022-04-18 02:15:00,,0827.9,5.00,0.00,26.8,25.8,00.0,35.8,28.5,12.9,0000.0,0003.42,0013.39,0001.27
2022-04-18 02:16:00,,0827.7,5.01,0.00,26.8,25.9,00.0,35.8,28.5,12.9,0000.0,0003.40,0012.70,0001.25
2022-04-18 02:17:00,,0827.8,5.00,0.00,26.8,25.8,00.0,35.8,28.6,12.8,0000.0,0003.39,0011.66,0001.24
2022-04-18 02:18:00,,0827.9,4.99,0.00,26.8,25.8,00.0,35.8,28.6,12.8,0000.0,0003.32,0011.11,0001.21
2022-04-18 02:19:00,,0828.0,5.01,0.00,26.8,25.8,00.0,35.8,28.6,12.8,0000.0,0003.22,0010.65,0001.19
2022-04-18 02:20:00,,0828.1,5.00,0.00,26.8,25.8,00.0,35.8,28.5,12.9,0000.0,0003.22,0010.03,0001.18
2022-04-18 02:21:00,,0828.1,4.99,0.00,26.8,25.8,00.0,35.7,28.5,12.9,0000.0,0003.22,0010.20,0001.18
2022-04-18 02:22:00,,0828.1,5.00,0.00,26.7,25.7,00.0,35.7,28.3,12.9,0000.0,0003.21,0009.86,0001.17
2022-04-18 02:23:00,,0828.1,4.99,0.00,26.7,25.7,00.0,35.7,28.3,12.9,0000.0,0003.20,0009.81,0001.17
2022-04-18 02:24:00,,0828.1,5.01,0.00,26.7,25.7,00.0,35.7,28.4,12.9,0000.0,0003.22,0010.16,0001.16
2022-04-18 02:25:00,,0828.1,5.00,0.00,26.7,25.7,00.0,35.7,28.4,12.8,0000.0,0003.19,0010.14,0001.16
2022-04-18 02:26:00,,0828.2,4.99,0.00,26.7,25.7,00.0,35.7,28.3,12.8,0000.0,0003.20,0010.77,0001.16
2022-04-18 02:27:00,,0828.2,5.00,0.00,26.7,25.7,00.0,35.7,28.4,12.8,0000.0,0003.14,0010.71,0001.16
2022-04-18 02:28:00,,0828.2,5.00,0.00,26.7,25.7,00.0,35.7,28.3,12.8,0000.0,0003.11,0010.27,0001.15
2022-04-18 02:29:00,,0828.1,5.00,0.00,26.7,25.7,00.0,35.7,28.4,12.7,0000.0,0003.10,0009.11,0001.15
2022-04-18 02:30:00,,0828.0,5.01,0.00,26.7,25.7,00.0,35.7,28.4,12.8,0000.0,0003.11,0008.91,0001.16
2022-04-18 02:31:00,,0828.1,4.99,0.00,26.7,25.7,00.0,35.7,28.4,12.8,0000.0,0003.05,0008.63,0001.17
2022-04-18 02:32:00,,0828.3,4.99,0.00,26.7,25.7,00.0,35.7,28.5,12.7,0000.0,0002.97,0008.31,0001.15
2022-04-18 02:33:00,,0828.4,5.02,0.00,26.6,25.6,00.0,35.7,28.3,12.7,0000.0,0003.03,0008.34,0001.16
2022-04-18 02:34:00,,0828.3,5.00,0.00,26.6,25.6,00.0,35.6,28.2,12.7,0000.0,0003.04,0008.40,0001.16
2022-04-18 02:35:00,,0828.3,5.00,0.00,26.6,25.6,00.0,35.6,28.3,12.8,0000.0,0003.01,0008.17,0001.15
2022-04-18 02:36:00,,0828.4,4.99,0.00,26.6,25.6,00.0,35.6,28.3,12.8,0000.0,0002.99,0008.06,0001.13
2022-04-18 02:37:00,,0828.4,5.00,0.00,26.6,25.6,00.0,35.6,28.3,12.8,0000.0,0002.91,0007.33,0001.13
2022-04-18 02:38:00,,0828.4,5.02,0.00,26.6,25.6,00.0,35.6,28.3,12.8,0000.0,0002.87,0007.14,0001.11
2022-04-18 02:39:00,,0828.2,4.99,0.00,26.7,25.6,00.0,35.6,28.4,12.8,0000.0,0002.81,0007.24,0001.12
2022-04-18 02:40:00,,0828.4,5.01,0.00,26.6,25.6,00.0,35.6,28.4,12.9,0000.0,0002.84,0007.30,0001.13
2022-04-18 02:41:00,,0828.2,5.00,0.00,26.7,25.6,00.0,35.6,28.3,12.8,0000.0,0002.81,0007.20,0001.11
2022-04-18 02:42:00,,0828.2,5.00,0.00,26.7,25.6,00.0,35.6,28.4,12.8,0000.0,0002.82,0007.75,0001.11
2022-04-18 02:43:00,,0828.3,5.00,0.00,26.7,25.7,00.0,35.6,28.4,12.8,0000.0,0002.89,0008.19,0001.11
2022-04-18 02:44:00,,0828.3,5.00,0.00,26.7,25.6,00.0,35.6,28.4,12.8,0000.0,0002.81,0008.25,0001.09
2022-04-18 02:45:00,,0828.4,5.00,0.00,26.7,25.6,00.0,35.6,28.4,12.9,0000.0,0002.74,0008.16,0001.07
2022-04-18 02:46:00,,0828.3,5.01,0.00,26.6,25.6,00.0,35.6,28.4,12.9,0000.0,0002.78,0008.93,0001.06
2022-04-18 02:47:00,,0828.4,5.01,0.00,26.6,25.7,00.0,35.6,28.4,13.0,0000.0,0002.78,0009.63,0001.05
2022-04-18 02:48:00,,0828.3,4.99,0.00,26.6,25.7,00.0,35.6,28.4,13.1,0000.0,0002.84,0009.68,0001.04
2022-04-18 02:49:00,,0828.3,5.00,0.00,26.6,25.7,00.0,35.6,28.4,13.1,0000.0,0002.88,0009.80,0001.05
2022-04-18 02:50:00,,0828.3,5.00,0.00,26.6,25.7,00.0,35.6,28.5,13.1,0000.0,0003.00,0009.99,0001.05
2022-04-18 02:51:00,,0828.3,5.00,0.00,26.6,25.8,00.0,35.6,28.5,13.1,0000.0,0003.00,0009.90,0001.04
2022-04-18 02:52:00,,0828.3,5.00,0.00,26.7,25.8,00.0,35.6,28.5,13.0,0000.0,0003.00,0009.96,0001.04
2022-04-18 02:53:00,,0828.3,5.00,0.00,26.7,25.9,00.0,35.6,28.5,13.0,0000.0,0003.05,0009.74,0001.04
2022-04-18 02:54:00,,0828.3,4.99,0.00,26.7,25.9,00.0,35.6,28.6,13.0,0000.0,0003.03,0009.58,0001.02
2022-04-18 02:55:00,,0828.3,5.00,0.00,26.7,25.9,00.0,35.6,28.6,13.0,0000.0,0003.06,0010.07,0001.02
2022-04-18 02:56:00,,0828.3,5.00,0.00,26.7,25.9,00.0,35.6,28.6,13.0,0000.0,0003.13,0010.53,0001.04
2022-04-18 02:57:00,,0828.3,5.00,0.00,26.7,26.0,00.0,35.6,28.6,12.9,0000.0,0003.06,0009.89,0001.04
2022-04-18 02:58:00,,0828.3,5.01,0.00,26.8,26.0,00.0,35.6,28.6,12.8,0000.0,0003.07,0008.94,0001.04
2022-04-18 02:59:00,,0828.4,5.00,0.00,26.8,26.0,00.0,35.6,28.6,12.6,0000.0,0003.00,0009.43,0001.03
